彩虹 26星 (RADUGA 26)

导读 | 星芒AI

RADUGA 26 是一颗由俄罗斯研制并发射的军用通信卫星,属于“彩虹”(Raduga)系列。该卫星主要用于支持俄罗斯武装部队的战术和战略通信需求,具备抗干扰和加密能力,以确保在复杂电磁环境下的通信安全。RADUGA 26 通常由“联盟”或“安加拉”运载火箭发射,部署在近地轨道或中地球轨道,提供稳定、高效的军事通信服务,增强俄军的指挥控制与作战协调能力。

基本信息
目录编号:
21016
目录名称:
RADUGA 26
国际标识:
1990-112A
轨道中心:
EARTH
卫星名称:
彩虹 26星
卫星全名:
彩虹 26星 (RADUGA 26)
卫星状态:
在轨 (已飞行12717 天)
发射日期:
1990-12-20 UTC
国别 :
俄罗斯(独联体) (CIS)
星等 :
--
轨道信息
数据来源 国际轨道数据 AOE轨道数据
星历时间 2025-10-13T23:50:18+0800
22小时前
查看轨道信息
2025-10-11T00:00:00+0800
3天前
查看轨道信息
半长轴 42174.599km 42174.094km
偏心率 0.0003596 0.0003431
轨道倾角 13.058° 13.060°
近地点辐角 140.521° 137.023°
升交点赤经 339.623° 339.647°
平近点角 230.025° 233.359°
近地点 35781.298km 35781.489km
远地点 35811.63km 35810.429km
周期 1436.601分钟 1436.575分钟
每日圈数 1.002366 1.002384
详细信息
平衡模式:
三轴稳定
覆盖范围:
全球
运营商:
俄罗斯国家航天集团
运营商所在国:
俄罗斯
制造商(研发单位):
普里克拉德诺伊·梅哈尼基设计局
制造商所在国:
俄罗斯联邦
使用方式:
暂无
卫星简介
彩虹卫星(Raduga, Gran)是苏联用于军事和通信目的的一系列地球静止通信卫星。彩虹卫星旨在支持军事通信、Orbita地面电视网络,并在整个东半球(极地地区除外)提供电话和电报通信。该卫星已退役。
2D轨道图
3D轨道图
轨道高度分析图
轨道倾角分析图
轨道综合分析图
查看轨道综合分析图